Simultaneous Nadir Overpasses (SNOs) Predictions

Prediction of SNOs between AQUA and NPP Satellite Orbit:

Table of predicted SNOs for the next 14.0 days since TLE Epoch: 12/24/2011
Index Date (AQUA) Time (AQUA) Lat,Lon (AQUA) SZA (AQUA ) Date (NPP) Time (NPP) Lat,Lon (NPP) SZA (NPP ) Distance(km) Time Diff (sec)
1 12/26/2011 14:04:51 75.97,-152.38 120.05 12/26/2011 14:04:38 75.96,-152.45 120.08 2.19 13
2 12/26/2011 14:53:54 -77.14, 19.26 61.25 12/26/2011 14:54:57 -77.14, 19.29 61.32 0.83 63
3 12/29/2011 06:21:33 76.18, -35.92 119.78 12/29/2011 06:21:24 76.17, -35.94 119.80 0.43 9
4 12/29/2011 07:10:37 -77.29, 135.67 61.48 12/29/2011 07:11:44 -77.30, 135.76 61.56 2.46 67
5 12/31/2011 22:38:22 76.33, 80.37 119.51 12/31/2011 22:38:11 76.34, 80.42 119.51 1.44 11
6 12/31/2011 23:27:35 -77.03,-109.55 61.28 12/31/2011 23:28:41 -77.03,-109.62 61.33 1.79 66
7 01/03/2012 14:55:27 75.96,-165.07 119.77 01/03/2012 14:55:09 75.95,-165.15 119.81 2.42 18
8 01/03/2012 15:44:31 -77.10, 6.45 61.52 01/03/2012 15:45:29 -77.10, 6.45 61.57 0.05 58
9 01/06/2012 07:12:31 75.97, -49.29 119.55 01/06/2012 07:11:59 75.97, -49.30 119.58 0.28 32




NCC Satellite Simultaneous Nadir Overpasses (SNOs) Prediction Service
